| time (UTC) | temp F | wind direction | speed MPH | gust MPH | rain 1hr in | rain 24hr in | rain mn in | humidity % | barometer mb |
| 20260505075515 | 46 | 317 | 7.0 | 15.0 | 0.00 | 0.00 | 0.00 | 48 | 1004.2 |
| 20260505075021 | 47 | 290 | 6.0 | 15.0 | 0.00 | 0.00 | 0.00 | 48 | 1004.1 |
| 20260505074531 | 47 | 336 | 8.0 | 15.0 | 0.00 | 0.00 | 0.00 | 48 | 1004.2 |
| 20260505074015 | 47 | 360 | 8.0 | 12.0 | 0.00 | 0.00 | 0.00 | 49 | 1004.2 |
| 20260505073520 | 47 | 316 | 7.0 | 15.0 | 0.00 | 0.00 | 0.00 | 49 | 1004.1 |
| 20260505073030 | 47 | 309 | 7.0 | 15.0 | 0.00 | 0.00 | 0.00 | 48 | 1004.2 |
| 20260505072516 | 48 | 311 | 9.0 | 17.0 | 0.00 | 0.00 | 0.00 | 47 | 1004.3 |
| 20260505072015 | 48 | 314 | 10.0 | 22.0 | 0.00 | 0.00 | 0.00 | 47 | 1004.1 |
| 20260505071534 | 48 | 327 | 10.0 | 22.0 | 0.00 | 0.00 | 0.00 | 46 | 1004.2 |
| 20260505071015 | 48 | 311 | 9.0 | 17.0 | 0.00 | 0.00 | 0.00 | 46 | 1004.2 |
| 20260505070521 | 48 | 321 | 8.0 | 17.0 | 0.00 | 0.00 | 0.00 | 46 | 1004.0 |
| 20260505070031 | 48 | 298 | 10.0 | 19.0 | 0.00 | 0.00 | 0.00 | 46 | 1004.0 |
| 20260505065515 | 49 | 352 | 9.0 | 19.0 | 0.00 | 0.00 | 0.00 | 46 | 1004.0 |
| 20260505065016 | 49 | 360 | 8.0 | 18.0 | 0.00 | 0.00 | 0.00 | 46 | 1003.6 |
| 20260505064530 | 49 | 332 | 8.0 | 18.0 | 0.00 | 0.00 | 0.00 | 45 | 1003.7 |
| 20260505064015 | 50 | 311 | 8.0 | 19.0 | 0.00 | 0.00 | 0.00 | 45 | 1003.9 |
| 20260505063515 | 50 | 311 | 9.0 | 19.0 | 0.00 | 0.00 | 0.00 | 46 | 1003.9 |
| 20260505063030 | 50 | 76 | 11.0 | 19.0 | 0.00 | 0.00 | 0.00 | 46 | 1003.9 |
| 20260505062516 | 50 | 340 | 10.0 | 17.0 | 0.00 | 0.00 | 0.00 | 48 | 1003.8 |
| 20260505062012 | 51 | 327 | 7.0 | 17.0 | 0.00 | 0.00 | 0.00 | 48 | 1003.6 |
| 20260505061530 | 51 | 321 | 8.0 | 15.0 | 0.00 | 0.00 | 0.00 | 47 | 1003.6 |
| 20260505061018 | 51 | 328 | 7.0 | 14.0 | 0.00 | 0.00 | 0.00 | 47 | 1003.6 |
| 20260505060515 | 51 | 313 | 9.0 | 17.0 | 0.00 | 0.00 | 0.00 | 46 | 1003.6 |
| 20260505060042 | 51 | 305 | 10.0 | 16.0 | 0.00 | 0.00 | 0.00 | 46 | 1003.3 |
| 20260505055520 | 52 | 296 | 9.0 | 16.0 | 0.00 | 0.00 | 0.00 | 46 | 1003.4 |
| 20260505055014 | 52 | 309 | 10.0 | 16.0 | 0.00 | 0.00 | 0.00 | 45 | 1003.1 |
| 20260505054533 | 52 | 338 | 10.0 | 16.0 | 0.00 | 0.00 | 0.00 | 45 | 1003.2 |
| 20260505054013 | 52 | 311 | 12.0 | 19.0 | 0.00 | 0.00 | 0.00 | 45 | 1003.1 |
| 20260505053513 | 53 | 315 | 12.0 | 19.0 | 0.00 | 0.00 | 0.00 | 45 | 1003.0 |
| 20260505053031 | 53 | 325 | 11.0 | 20.0 | 0.00 | 0.00 | 0.00 | 45 | 1002.8 |
| 20260505052515 | 53 | 322 | 8.0 | 20.0 | 0.00 | 0.00 | 0.00 | 45 | 1002.8 |
| 20260505052016 | 53 | 321 | 13.0 | 20.0 | 0.00 | 0.00 | 0.00 | 45 | 1002.8 |
| 20260505051531 | 53 | 344 | 11.0 | 17.0 | 0.00 | 0.00 | 0.00 | 45 | 1002.6 |
| 20260505051016 | 53 | 315 | 7.0 | 16.0 | 0.00 | 0.00 | 0.00 | 45 | 1002.4 |
| 20260505050515 | 54 | 332 | 9.0 | 16.0 | 0.00 | 0.00 | 0.00 | 44 | 1002.3 |
| 20260505041531 | 56 | 296 | 8.0 | 14.0 | 0.00 | 0.00 | 0.00 | 38 | 1001.7 |
| 20260505041016 | 57 | 324 | 7.0 | 14.0 | 0.00 | 0.00 | 0.00 | 38 | 1001.7 |
| 20260505040516 | 57 | 326 | 8.0 | 14.0 | 0.00 | 0.00 | 0.00 | 37 | 1001.5 |
| 20260505040031 | 57 | 324 | 5.0 | 14.0 | 0.00 | 0.00 | 0.00 | 37 | 1001.4 |
| 20260505035518 | 58 | 296 | 6.0 | 14.0 | 0.00 | 0.00 | 0.00 | 36 | 1001.3 |
| 20260505035015 | 58 | 313 | 7.0 | 12.0 | 0.00 | 0.00 | 0.00 | 36 | 1001.2 |
| 20260505034530 | 58 | 317 | 8.0 | 12.0 | 0.00 | 0.00 | 0.00 | 35 | 1001.1 |
| 20260505034015 | 58 | 315 | 8.0 | 14.0 | 0.00 | 0.00 | 0.00 | 34 | 1001.1 |
| 20260505033516 | 59 | 317 | 7.0 | 14.0 | 0.00 | 0.00 | 0.00 | 34 | 1000.9 |
| 20260505033029 | 59 | 310 | 8.0 | 14.0 | 0.00 | 0.00 | 0.00 | 33 | 1000.9 |
| 20260505032515 | 59 | 315 | 5.0 | 11.0 | 0.00 | 0.00 | 0.00 | 33 | 1000.8 |
| 20260505032015 | 59 | 31 | 5.0 | 11.0 | 0.00 | 0.00 | 0.00 | 34 | 1000.6 |
| 20260505031529 | 59 | 243 | 6.0 | 12.0 | 0.00 | 0.00 | 0.00 | 33 | 1000.5 |
| 20260505031015 | 59 | 319 | 6.0 | 12.0 | 0.00 | 0.00 | 0.00 | 34 | 1000.4 |
| 20260505030512 | 60 | 312 | 7.0 | 12.0 | 0.00 | 0.00 | 0.00 | 34 | 1000.3 |
| 20260505030032 | 60 | 277 | 6.0 | 13.0 | 0.00 | 0.00 | 0.00 | 35 | 1000.0 |
| 20260505025521 | 60 | 274 | 6.0 | 13.0 | 0.00 | 0.00 | 0.00 | 36 | 999.9 |
| 20260505025015 | 60 | 274 | 6.0 | 12.0 | 0.00 | 0.00 | 0.00 | 36 | 999.8 |
| 20260505024533 | 60 | 257 | 6.0 | 13.0 | 0.00 | 0.00 | 0.00 | 37 | 999.8 |
| 20260505024015 | 61 | 284 | 5.0 | 13.0 | 0.00 | 0.00 | 0.00 | 37 | 999.8 |
| 20260505023515 | 61 | 302 | 7.0 | 13.0 | 0.00 | 0.00 | 0.00 | 37 | 999.7 |
| 20260505023030 | 61 | 286 | 6.0 | 13.0 | 0.00 | 0.00 | 0.00 | 37 | 999.7 |
| 20260505022515 | 61 | 265 | 7.0 | 13.0 | 0.00 | 0.00 | 0.00 | 37 | 999.6 |
| 20260505022022 | 62 | 299 | 5.0 | 14.0 | 0.00 | 0.00 | 0.00 | 37 | 999.6 |
| 20260505021531 | 62 | 296 | 7.0 | 16.0 | 0.00 | 0.00 | 0.00 | 37 | 999.4 |
| 20260505021015 | 62 | 302 | 8.0 | 16.0 | 0.00 | 0.00 | 0.00 | 36 | 999.3 |
| 20260505020515 | 62 | 321 | 7.0 | 18.0 | 0.00 | 0.00 | 0.00 | 36 | 999.1 |
| 20260505020031 | 63 | 309 | 8.0 | 18.0 | 0.00 | 0.00 | 0.00 | 37 | 999.1 |
| 20260505015515 | 63 | 292 | 10.0 | 18.0 | 0.00 | 0.00 | 0.00 | 37 | 998.9 |
| 20260505015015 | 63 | 244 | 10.0 | 17.0 | 0.00 | 0.00 | 0.00 | 38 | 998.6 |
| 20260505014532 | 63 | 308 | 9.0 | 17.0 | 0.00 | 0.00 | 0.00 | 38 | 998.5 |
| 20260505014019 | 63 | 275 | 10.0 | 17.0 | 0.00 | 0.00 | 0.00 | 38 | 998.4 |
| 20260505013514 | 63 | 312 | 9.0 | 16.0 | 0.00 | 0.00 | 0.00 | 37 | 998.1 |
| 20260505013046 | 64 | 302 | 9.0 | 16.0 | 0.00 | 0.00 | 0.00 | 37 | 997.9 |
| 20260505012516 | 64 | 304 | 9.0 | 15.0 | 0.00 | 0.00 | 0.00 | 37 | 997.6 |
| 20260505012016 | 65 | 301 | 9.0 | 17.0 | 0.00 | 0.00 | 0.00 | 36 | 997.6 |
| 20260505011532 | 65 | 283 | 12.0 | 17.0 | 0.00 | 0.00 | 0.00 | 36 | 997.5 |
| 20260505011015 | 65 | 333 | 9.0 | 21.0 | 0.00 | 0.00 | 0.00 | 36 | 997.3 |
| 20260505010519 | 66 | 317 | 12.0 | 21.0 | 0.00 | 0.00 | 0.00 | 35 | 997.4 |
| 20260505010031 | 66 | 284 | 9.0 | 17.0 | 0.00 | 0.00 | 0.00 | 35 | 997.3 |
| 20260505005515 | 66 | 313 | 9.0 | 20.0 | 0.00 | 0.00 | 0.00 | 34 | 997.2 |
| 20260505005016 | 66 | 336 | 11.0 | 20.0 | 0.00 | 0.00 | 0.00 | 35 | 997.1 |
| 20260505004530 | 67 | 312 | 9.0 | 20.0 | 0.00 | 0.00 | 0.00 | 35 | 997.1 |
| 20260505004015 | 67 | 313 | 8.0 | 20.0 | 0.00 | 0.00 | 0.00 | 35 | 997.0 |
| 20260505003516 | 68 | 308 | 12.0 | 20.0 | 0.00 | 0.00 | 0.00 | 34 | 996.9 |
| 20260505003034 | 68 | 302 | 9.0 | 21.0 | 0.00 | 0.00 | 0.00 | 35 | 996.9 |
| 20260505002516 | 69 | 360 | 10.0 | 21.0 | 0.00 | 0.00 | 0.00 | 35 | 996.9 |
| 20260505002015 | 69 | 345 | 12.0 | 23.0 | 0.00 | 0.00 | 0.00 | 34 | 996.7 |
| 20260505001531 | 70 | 352 | 13.0 | 23.0 | 0.00 | 0.00 | 0.00 | 35 | 996.8 |
| 20260505001014 | 70 | 311 | 13.0 | 19.0 | 0.00 | 0.00 | 0.00 | 36 | 996.5 |
| 20260505000514 | 71 | 347 | 9.0 | 17.0 | 0.00 | 0.00 | 0.00 | 38 | 996.4 |
| 20260505000045 | 71 | 285 | 8.0 | 18.0 | 0.00 | 0.00 | 0.00 | 39 | 996.2 |
| 20260504235515 | 71 | 319 | 9.0 | 18.0 | 0.00 | 0.00 | 0.00 | 39 | 996.2 |
| 20260504235016 | 71 | 340 | 9.0 | 14.0 | 0.00 | 0.00 | 0.00 | 41 | 996.2 |
| 20260504234534 | 71 | 325 | 9.0 | 14.0 | 0.00 | 0.00 | 0.00 | 42 | 996.1 |
| 20260504234015 | 71 | 306 | 6.0 | 13.0 | 0.00 | 0.00 | 0.00 | 43 | 996.1 |
| 20260504233515 | 71 | 303 | 9.0 | 14.0 | 0.00 | 0.00 | 0.00 | 44 | 996.2 |
| 20260504233031 | 70 | 310 | 10.0 | 14.0 | 0.00 | 0.00 | 0.00 | 44 | 996.1 |
| 20260504232516 | 70 | 296 | 7.0 | 12.0 | 0.00 | 0.00 | 0.00 | 47 | 996.1 |
| 20260504232015 | 69 | 271 | 6.0 | 11.0 | 0.00 | 0.00 | 0.00 | 45 | 996.1 |
| 20260504231530 | 69 | 263 | 5.0 | 23.0 | 0.00 | 0.00 | 0.00 | 44 | 996.0 |
| 20260504231015 | 70 | 288 | 9.0 | 37.0 | 0.00 | 0.00 | 0.00 | 42 | 996.1 |
| 20260504230515 | 72 | 305 | 13.0 | 37.0 | 0.00 | 0.00 | 0.00 | 36 | 996.4 |
| 20260504230033 | 74 | 234 | 8.0 | 19.0 | 0.00 | 0.00 | 0.00 | 33 | 996.5 |
| 20260504225515 | 75 | 236 | 8.0 | 19.0 | 0.00 | 0.00 | 0.00 | 33 | 995.8 |
| 20260504225017 | 75 | 282 | 9.0 | 19.0 | 0.00 | 0.00 | 0.00 | 31 | 995.8 |
| 20260504224532 | 76 | 194 | 12.0 | 20.0 | 0.00 | 0.00 | 0.00 | 30 | 995.9 |
| 20260504224015 | 76 | 243 | 10.0 | 29.0 | 0.00 | 0.00 | 0.00 | 31 | 995.8 |
| 20260504223516 | 77 | 259 | 13.0 | 29.0 | 0.00 | 0.00 | 0.00 | 29 | 995.8 |
| 20260504223030 | 77 | 212 | 12.0 | 26.0 | 0.00 | 0.00 | 0.00 | 29 | 995.7 |
| 20260504222515 | 77 | 304 | 12.0 | 23.0 | 0.00 | 0.00 | 0.00 | 30 | 995.9 |
| 20260504222019 | 78 | 233 | 9.0 | 23.0 | 0.00 | 0.00 | 0.00 | 30 | 995.7 |
| 20260504221531 | 77 | 261 | 12.0 | 21.0 | 0.00 | 0.00 | 0.00 | 29 | 995.8 |
| 20260504221015 | 77 | 246 | 11.0 | 21.0 | 0.00 | 0.00 | 0.00 | 29 | 995.7 |
| 20260504220515 | 78 | 184 | 11.0 | 21.0 | 0.00 | 0.00 | 0.00 | 30 | 995.8 |
| 20260504220039 | 77 | 237 | 14.0 | 23.0 | 0.00 | 0.00 | 0.00 | 30 | 995.7 |
| 20260504215515 | 77 | 240 | 11.0 | 26.0 | 0.00 | 0.00 | 0.00 | 30 | 995.8 |
| 20260504215015 | 77 | 300 | 13.0 | 26.0 | 0.00 | 0.00 | 0.00 | 30 | 995.8 |
| 20260504214538 | 77 | 250 | 9.0 | 25.0 | 0.00 | 0.00 | 0.00 | 32 | 995.9 |
| 20260504214018 | 77 | 242 | 13.0 | 26.0 | 0.00 | 0.00 | 0.00 | 30 | 995.9 |
| 20260504213515 | 77 | 236 | 12.0 | 33.0 | 0.00 | 0.00 | 0.00 | 30 | 996.0 |
| 20260504213034 | 77 | 248 | 15.0 | 33.0 | 0.00 | 0.00 | 0.00 | 30 | 996.0 |
| 20260504212515 | 77 | 240 | 16.0 | 31.0 | 0.00 | 0.00 | 0.00 | 30 | 996.1 |
| 20260504212019 | 77 | 244 | 16.0 | 31.0 | 0.00 | 0.00 | 0.00 | 30 | 996.1 |
| 20260504211535 | 77 | 210 | 14.0 | 32.0 | 0.00 | 0.00 | 0.00 | 30 | 996.1 |
| 20260504211015 | 77 | 246 | 13.0 | 32.0 | 0.00 | 0.00 | 0.00 | 30 | 996.2 |
| 20260504210516 | 77 | 229 | 13.0 | 29.0 | 0.00 | 0.00 | 0.00 | 31 | 996.2 |
| 20260504210031 | 77 | 247 | 16.0 | 29.0 | 0.00 | 0.00 | 0.00 | 30 | 996.4 |
| 20260504205515 | 77 | 243 | 13.0 | 28.0 | 0.00 | 0.00 | 0.00 | 30 | 996.3 |
| 20260504205016 | 78 | 206 | 7.0 | 24.0 | 0.00 | 0.00 | 0.00 | 31 | 996.4 |
| 20260504204530 | 77 | 265 | 12.0 | 26.0 | 0.00 | 0.00 | 0.00 | 32 | 996.5 |
| 20260504204015 | 76 | 222 | 13.0 | 26.0 | 0.00 | 0.00 | 0.00 | 31 | 996.5 |
| 20260504203518 | 77 | 232 | 11.0 | 28.0 | 0.00 | 0.00 | 0.00 | 31 | 996.5 |
| 20260504203035 | 76 | 257 | 12.0 | 28.0 | 0.00 | 0.00 | 0.00 | 31 | 996.6 |
| 20260504202515 | 76 | 257 | 11.0 | 29.0 | 0.00 | 0.00 | 0.00 | 31 | 996.7 |
| 20260504202015 | 76 | 252 | 14.0 | 29.0 | 0.00 | 0.00 | 0.00 | 29 | 996.8 |
| 20260504201532 | 76 | 222 | 7.0 | 26.0 | 0.00 | 0.00 | 0.00 | 32 | 996.8 |
| 20260504201018 | 75 | 245 | 11.0 | 25.0 | 0.00 | 0.00 | 0.00 | 31 | 996.8 |
| 20260504200515 | 76 | 176 | 13.0 | 25.0 | 0.00 | 0.00 | 0.00 | 32 | 996.8 |
| 20260504200031 | 75 | 306 | 13.0 | 25.0 | 0.00 | 0.00 | 0.00 | 30 | 996.9 |
| 20260504195515 | 76 | 275 | 10.0 | 30.0 | 0.00 | 0.00 | 0.00 | 31 | 996.8 |
| 20260504195016 | 76 | 261 | 10.0 | 30.0 | 0.00 | 0.00 | 0.00 | 30 | 997.0 |
| 20260504194532 | 75 | 228 | 14.0 | 29.0 | 0.00 | 0.00 | 0.00 | 30 | 996.9 |
| 20260504194017 | 75 | 223 | 15.0 | 29.0 | 0.00 | 0.00 | 0.00 | 30 | 997.0 |
| 20260504193514 | 75 | 243 | 14.0 | 31.0 | 0.00 | 0.00 | 0.00 | 30 | 997.1 |
| 20260504193031 | 76 | 159 | 15.0 | 31.0 | 0.00 | 0.00 | 0.00 | 30 | 996.9 |
| 20260504192515 | 76 | 317 | 16.0 | 31.0 | 0.00 | 0.00 | 0.00 | 29 | 997.1 |
| 20260504192015 | 76 | 271 | 11.0 | 27.0 | 0.00 | 0.00 | 0.00 | 29 | 997.1 |
| 20260504191529 | 77 | 288 | 12.0 | 27.0 | 0.00 | 0.00 | 0.00 | 30 | 997.2 |
| 20260504191015 | 77 | 239 | 11.0 | 27.0 | 0.00 | 0.00 | 0.00 | 29 | 997.1 |
| 20260504190515 | 76 | 263 | 16.0 | 27.0 | 0.00 | 0.00 | 0.00 | 28 | 997.2 |
| 20260504190032 | 77 | 197 | 11.0 | 27.0 | 0.00 | 0.00 | 0.00 | 29 | 997.0 |
| 20260504185515 | 76 | 211 | 9.0 | 22.0 | 0.00 | 0.00 | 0.00 | 29 | 997.1 |
| 20260504185018 | 76 | 267 | 12.0 | 26.0 | 0.00 | 0.00 | 0.00 | 29 | 997.1 |
| 20260504184534 | 76 | 242 | 12.0 | 27.0 | 0.00 | 0.00 | 0.00 | 29 | 997.1 |
| 20260504184016 | 76 | 235 | 14.0 | 27.0 | 0.00 | 0.00 | 0.00 | 28 | 997.2 |
| 20260504183516 | 76 | 234 | 11.0 | 27.0 | 0.00 | 0.00 | 0.00 | 28 | 997.3 |
| 20260504183035 | 76 | 229 | 13.0 | 27.0 | 0.00 | 0.00 | 0.00 | 27 | 997.3 |
| 20260504182515 | 76 | 303 | 9.0 | 29.0 | 0.00 | 0.00 | 0.00 | 29 | 997.4 |
| 20260504182017 | 75 | 240 | 11.0 | 29.0 | 0.00 | 0.00 | 0.00 | 29 | 997.4 |
| 20260504181538 | 75 | 270 | 14.0 | 25.0 | 0.00 | 0.00 | 0.00 | 28 | 997.4 |
| 20260504181018 | 76 | 248 | 11.0 | 22.0 | 0.00 | 0.00 | 0.00 | 29 | 997.4 |
| 20260504180516 | 75 | 223 | 12.0 | 26.0 | 0.00 | 0.00 | 0.00 | 29 | 997.5 |
| 20260504180035 | 75 | 239 | 14.0 | 26.0 | 0.00 | 0.00 | 0.00 | 29 | 997.6 |
| 20260504175515 | 75 | 223 | 12.0 | 21.0 | 0.00 | 0.00 | 0.00 | 28 | 997.6 |
| 20260504175015 | 75 | 257 | 11.0 | 29.0 | 0.00 | 0.00 | 0.00 | 29 | 997.5 |
| 20260504174537 | 74 | 268 | 11.0 | 29.0 | 0.00 | 0.00 | 0.00 | 30 | 997.7 |
| 20260504174016 | 75 | 292 | 11.0 | 26.0 | 0.00 | 0.00 | 0.00 | 30 | 997.7 |
| 20260504173516 | 74 | 270 | 14.0 | 31.0 | 0.00 | 0.00 | 0.00 | 31 | 997.7 |
| 20260504173032 | 74 | 229 | 14.0 | 31.0 | 0.00 | 0.00 | 0.00 | 29 | 997.8 |
| 20260504172517 | 74 | 175 | 11.0 | 31.0 | 0.00 | 0.00 | 0.00 | 30 | 997.9 |
| 20260504172016 | 73 | 199 | 14.0 | 31.0 | 0.00 | 0.00 | 0.00 | 30 | 997.9 |
| 20260504171536 | 73 | 232 | 14.0 | 26.0 | 0.00 | 0.00 | 0.00 | 30 | 998.0 |
| 20260504171021 | 73 | 234 | 14.0 | 26.0 | 0.00 | 0.00 | 0.00 | 29 | 998.0 |
| 20260504170515 | 74 | 263 | 12.0 | 26.0 | 0.00 | 0.00 | 0.00 | 30 | 998.1 |
| 20260504151017 | 70 | 325 | 11.0 | 21.0 | 0.00 | 0.00 | 0.00 | 33 | 999.6 |
| 20260504150516 | 70 | 235 | 8.0 | 23.0 | 0.00 | 0.00 | 0.00 | 32 | 999.5 |
| 20260504141015 | 67 | 192 | 12.0 | 21.0 | 0.00 | 0.00 | 0.00 | 34 | 1000.3 |
| 20260504140515 | 67 | 259 | 11.0 | 22.0 | 0.00 | 0.00 | 0.00 | 35 | 1000.5 |
| 20260504130517 | 61 | 192 | 6.0 | 12.0 | 0.00 | 0.00 | 0.00 | 45 | 1001.1 |
| 20260504110519 | 49 | 210 | 1.0 | 3.0 | 0.00 | 0.00 | 0.00 | 64 | 1001.4 |
| 20260504100517 | 50 | 217 | 1.0 | 2.0 | 0.00 | 0.00 | 0.00 | 61 | 1001.7 |
| 20260504081537 | 51 | 252 | 1.0 | 2.0 | 0.00 | 0.00 | 0.00 | 65 | 1003.1 |
| 20260504081015 | 51 | 251 | 0.0 | 2.0 | 0.00 | 0.00 | 0.00 | 63 | 1003.2 |
| 20260504080515 | 51 | 248 | 1.0 | 2.0 | 0.00 | 0.00 | 0.00 | 63 | 1003.2 |